Location: Castelbiague
(43.0361°N, 0.9246°E)
Time: 13:08:05
(UTC+00:00)

USA 215 - Pass Details

Date: 17 June 2021
Orbit: 1100 x 1107 km, 123.0° (Epoch: 22 June)

Event Time Altitude Azimuth Distance (km) Brightness Sun altitude
Rises 22:37:51 0° 48° (NE) 3,922 6.5 -21.1°
Reaches altitude 10° 22:40:20 10° 49° (NE) 2,962 5.8 -21.2°
Maximum altitude 22:46:54 89° 320° (NW) 1,106 3.2 -21.6°
Drops below altitude 10° 22:53:26 10° 231° (SW) 2,952 5.3 -21.9°
Sets 22:55:54 0° 232° (SW) 3,908 5.9 -22.1°
